Time,TemperatureF,DewpointF,PressureIn,WindDirection,WindDirectionDegrees,WindSpeedMPH,WindSpeedGustMPH,Humidity,HourlyPrecipIn,Conditions,Clouds,dailyrainin,SoftwareType,DateUTC
2013-03-19 00:00:00,31.6,28.7,29.76,SSE,165,3.7,13.0,89,0.00,,,0.00,WeatherDisplay:10.37,2013-03-19 04:00:00,
2013-03-19 00:05:00,31.7,28.8,29.76,ESE,108,5.2,13.0,89,0.00,,,0.00,WeatherDisplay:10.37,2013-03-19 04:05:00,
2013-03-19 00:10:00,31.9,29.0,29.75,East,96,5.0,13.0,89,0.00,,,0.00,WeatherDisplay:10.37,2013-03-19 04:10:00,
2013-03-19 00:15:00,32.0,29.1,29.75,East,87,3.9,13.0,89,0.00,,,0.00,WeatherDisplay:10.37,2013-03-19 04:15:00,
2013-03-19 00:20:00,32.1,29.2,29.75,SSW,193,3.9,14.0,89,0.00,,,0.00,WeatherDisplay:10.37,2013-03-19 04:20:00,
2013-03-19 00:25:00,32.1,28.9,29.75,ENE,72,3.0,14.0,88,0.00,,,0.00,WeatherDisplay:10.37,2013-03-19 04:25:00,
2013-03-19 00:30:00,32.1,28.9,29.74,SSW,204,6.9,14.0,88,0.00,,,0.00,WeatherDisplay:10.37,2013-03-19 04:30:00,
2013-03-19 00:35:00,32.2,29.0,29.75,East,84,4.9,17.3,88,0.00,,,0.00,WeatherDisplay:10.37,2013-03-19 04:35:00,
2013-03-19 00:40:00,32.3,29.1,29.74,NW,314,3.1,17.3,88,0.00,,,0.00,WeatherDisplay:10.37,2013-03-19 04:40:00,
2013-03-19 00:45:00,32.4,29.0,29.74,East,87,3.4,17.3,87,0.00,,,0.00,WeatherDisplay:10.37,2013-03-19 04:45:00,
2013-03-19 00:50:00,32.5,29.1,29.73,ENE,75,3.1,17.3,87,0.00,,,0.00,WeatherDisplay:10.37,2013-03-19 04:50:00,
2013-03-19 00:55:00,32.7,29.3,29.73,ENE,72,5.5,17.3,87,0.00,,,0.00,WeatherDisplay:10.37,2013-03-19 04:55:00,
2013-03-19 01:00:00,32.8,29.1,29.72,South,173,3.3,17.3,86,0.00,,,0.00,WeatherDisplay:10.37,2013-03-19 05:00:00,
2013-03-19 01:05:00,32.9,29.2,29.72,South,174,3.4,17.3,86,0.00,,,0.00,WeatherDisplay:10.37,2013-03-19 05:05:00,
2013-03-19 01:10:00,32.9,29.2,29.72,SSE,159,3.8,17.3,86,0.00,,,0.00,WeatherDisplay:10.37,2013-03-19 05:10:00,
2013-03-19 01:15:00,33.1,29.4,29.72,SSE,150,5.7,17.3,86,0.00,,,0.00,WeatherDisplay:10.37,2013-03-19 05:15:00,
2013-03-19 01:20:00,33.2,29.5,29.72,ENE,72,2.9,17.3,86,0.00,,,0.00,WeatherDisplay:10.37,2013-03-19 05:20:00,
2013-03-19 01:25:00,33.2,29.5,29.71,SE,134,5.0,17.3,86,0.00,,,0.00,WeatherDisplay:10.37,2013-03-19 05:25:00,
2013-03-19 01:30:00,33.3,29.6,29.71,East,99,3.5,17.3,86,0.00,,,0.00,WeatherDisplay:10.37,2013-03-19 05:30:00,
2013-03-19 01:35:00,33.2,29.5,29.71,SE,141,3.6,17.3,86,0.00,,,0.00,WeatherDisplay:10.37,2013-03-19 05:35:00,
2013-03-19 01:40:00,33.3,29.6,29.71,NE,34,2.3,17.3,86,0.00,,,0.00,WeatherDisplay:10.37,2013-03-19 05:40:00,
2013-03-19 01:45:00,33.4,29.7,29.71,East,86,4.8,17.3,86,0.00,,,0.00,WeatherDisplay:10.37,2013-03-19 05:45:00,
2013-03-19 01:50:00,33.5,29.5,29.71,East,95,3.3,17.3,85,0.00,,,0.00,WeatherDisplay:10.37,2013-03-19 05:50:00,
2013-03-19 01:55:00,33.5,29.5,29.71,East,99,2.5,17.3,85,0.00,,,0.00,WeatherDisplay:10.37,2013-03-19 05:55:00,
2013-03-19 02:00:00,33.6,29.6,29.71,SE,140,4.2,17.3,85,0.00,,,0.00,WeatherDisplay:10.37,2013-03-19 06:00:00,
2013-03-19 02:06:00,33.6,29.6,29.71,ESE,105,3.2,17.3,85,0.00,,,0.00,WeatherDisplay:10.37,2013-03-19 06:06:00,
2013-03-19 02:11:00,33.7,29.7,29.71,WSW,245,2.7,17.3,85,0.00,,,0.00,WeatherDisplay:10.37,2013-03-19 06:11:00,
2013-03-19 02:16:00,33.7,30.0,29.71,ESE,110,3.4,17.3,86,0.00,,,0.00,WeatherDisplay:10.37,2013-03-19 06:16:00,
2013-03-19 02:21:00,33.7,29.7,29.71,SSE,158,2.5,17.3,85,0.00,,,0.00,WeatherDisplay:10.37,2013-03-19 06:21:00,
2013-03-19 02:26:00,33.7,30.0,29.71,ENE,58,2.0,17.3,86,0.00,,,0.00,WeatherDisplay:10.37,2013-03-19 06:26:00,
2013-03-19 02:31:00,33.7,30.0,29.71,SE,132,4.7,17.3,86,0.00,,,0.00,WeatherDisplay:10.37,2013-03-19 06:31:00,
2013-03-19 02:36:00,33.7,30.0,29.71,SSE,158,1.1,17.3,86,0.00,,,0.00,WeatherDisplay:10.37,2013-03-19 06:36:00,
2013-03-19 02:41:00,33.6,30.1,29.70,East,96,2.8,17.3,87,0.00,,,0.00,WeatherDisplay:10.37,2013-03-19 06:41:00,
2013-03-19 02:46:00,33.6,30.1,29.70,SW,224,2.4,17.3,87,0.00,,,0.00,WeatherDisplay:10.37,2013-03-19 06:46:00,
2013-03-19 02:51:00,33.6,30.1,29.70,SSE,167,2.1,17.3,87,0.00,,,0.00,WeatherDisplay:10.37,2013-03-19 06:51:00,
2013-03-19 02:56:00,33.7,30.2,29.70,SSE,166,1.1,17.3,87,0.00,,,0.00,WeatherDisplay:10.37,2013-03-19 06:56:00,
2013-03-19 03:01:00,33.7,30.2,29.70,SSW,193,3.0,17.3,87,0.00,,,0.00,WeatherDisplay:10.37,2013-03-19 07:01:00,
2013-03-19 03:06:00,33.7,30.2,29.70,South,173,0.8,17.3,87,0.00,,,0.00,WeatherDisplay:10.37,2013-03-19 07:06:00,
2013-03-19 03:11:00,33.7,30.2,29.71,South,176,1.1,17.3,87,0.00,,,0.00,WeatherDisplay:10.37,2013-03-19 07:11:00,
2013-03-19 03:16:00,33.7,30.2,29.70,ENE,73,3.0,17.3,87,0.00,,,0.00,WeatherDisplay:10.37,2013-03-19 07:16:00,
2013-03-19 03:21:00,33.8,30.3,29.70,SSW,208,0.8,17.3,87,0.00,,,0.00,WeatherDisplay:10.37,2013-03-19 07:21:00,
2013-03-19 03:26:00,33.8,30.3,29.70,SSW,201,1.6,17.3,87,0.00,,,0.00,WeatherDisplay:10.37,2013-03-19 07:26:00,
2013-03-19 03:31:00,33.8,30.3,29.70,SW,231,1.6,17.3,87,0.00,,,0.00,WeatherDisplay:10.37,2013-03-19 07:31:00,
2013-03-19 03:36:00,33.8,30.3,29.70,SSE,150,1.7,17.3,87,0.00,,,0.00,WeatherDisplay:10.37,2013-03-19 07:36:00,
2013-03-19 03:41:00,33.9,30.4,29.70,West,267,0.1,17.3,87,0.00,,,0.00,WeatherDisplay:10.37,2013-03-19 07:41:00,
2013-03-19 03:46:00,33.8,30.3,29.70,ESE,110,0.9,17.3,87,0.00,,,0.00,WeatherDisplay:10.37,2013-03-19 07:46:00,
2013-03-19 03:51:00,33.9,30.4,29.70,ESE,123,1.7,17.3,87,0.00,,,0.00,WeatherDisplay:10.37,2013-03-19 07:51:00,
2013-03-19 03:56:00,33.8,30.3,29.70,SSW,193,1.7,17.3,87,0.00,,,0.00,WeatherDisplay:10.37,2013-03-19 07:56:00,
2013-03-19 04:01:00,33.8,30.6,29.70,East,85,1.6,17.3,88,0.00,,,0.00,WeatherDisplay:10.37,2013-03-19 08:01:00,
2013-03-19 04:06:00,33.9,30.7,29.70,East,96,1.2,17.3,88,0.00,,,0.00,WeatherDisplay:10.37,2013-03-19 08:06:00,
2013-03-19 04:11:00,33.9,30.7,29.70,East,84,1.3,17.3,88,0.00,,,0.00,WeatherDisplay:10.37,2013-03-19 08:11:00,
2013-03-19 04:17:00,33.9,30.7,29.70,ESE,105,1.8,17.3,88,0.00,,,0.00,WeatherDisplay:10.37,2013-03-19 08:17:00,
2013-03-19 04:22:00,33.8,30.6,29.70,South,181,1.1,17.3,88,0.00,,,0.00,WeatherDisplay:10.37,2013-03-19 08:22:00,
2013-03-19 04:27:00,33.9,30.7,29.71,SSW,195,0.3,17.3,88,0.00,,,0.00,WeatherDisplay:10.37,2013-03-19 08:27:00,
2013-03-19 04:32:00,33.9,30.7,29.71,East,82,0.2,17.3,88,0.00,,,0.00,WeatherDisplay:10.37,2013-03-19 08:32:00,
2013-03-19 04:37:00,33.9,30.7,29.70,East,99,2.1,17.3,88,0.00,,,0.00,WeatherDisplay:10.37,2013-03-19 08:37:00,
2013-03-19 04:42:00,33.9,30.7,29.70,ESE,113,0.6,17.3,88,0.00,,,0.00,WeatherDisplay:10.37,2013-03-19 08:42:00,
2013-03-19 04:47:00,33.9,30.7,29.71,SE,143,0.8,17.3,88,0.00,,,0.00,WeatherDisplay:10.37,2013-03-19 08:47:00,
2013-03-19 04:52:00,33.9,30.7,29.71,SE,124,1.3,17.3,88,0.00,,,0.00,WeatherDisplay:10.37,2013-03-19 08:52:00,
2013-03-19 04:57:00,34.0,30.8,29.71,SSW,194,0.1,17.3,88,0.00,,,0.00,WeatherDisplay:10.37,2013-03-19 08:57:00,
2013-03-19 05:02:00,33.9,31.0,29.71,SSE,150,0.8,17.3,89,0.00,,,0.00,WeatherDisplay:10.37,2013-03-19 09:02:00,
2013-03-19 05:07:00,34.0,31.1,29.71,SSE,155,0.1,17.3,89,0.00,,,0.00,WeatherDisplay:10.37,2013-03-19 09:07:00,
2013-03-19 05:12:00,34.0,31.1,29.71,SW,217,0.5,17.3,89,0.00,,,0.00,WeatherDisplay:10.37,2013-03-19 09:12:00,
2013-03-19 05:17:00,33.9,31.0,29.71,SSW,208,0.8,17.3,89,0.00,,,0.00,WeatherDisplay:10.37,2013-03-19 09:17:00,
2013-03-19 05:22:00,34.0,31.1,29.71,SE,135,0.2,17.3,89,0.00,,,0.00,WeatherDisplay:10.37,2013-03-19 09:22:00,
2013-03-19 05:27:00,33.9,31.0,29.71,East,101,0.0,17.3,89,0.00,,,0.00,WeatherDisplay:10.37,2013-03-19 09:27:00,
2013-03-19 05:32:00,33.9,31.0,29.71,ESE,122,0.0,17.3,89,0.00,,,0.00,WeatherDisplay:10.37,2013-03-19 09:32:00,
2013-03-19 05:37:00,33.8,30.9,29.71,ESE,122,0.0,17.3,89,0.00,,,0.00,WeatherDisplay:10.37,2013-03-19 09:37:00,
2013-03-19 05:42:00,33.7,30.8,29.71,ESE,121,0.0,17.3,89,0.00,,,0.00,WeatherDisplay:10.37,2013-03-19 09:42:00,
2013-03-19 05:47:00,33.7,31.1,29.71,ESE,121,0.0,17.3,90,0.00,,,0.00,WeatherDisplay:10.37,2013-03-19 09:47:00,
2013-03-19 05:52:00,33.7,31.1,29.71,SE,141,0.0,17.3,90,0.00,,,0.00,WeatherDisplay:10.37,2013-03-19 09:52:00,
2013-03-19 05:57:00,33.7,31.1,29.71,SE,139,0.1,17.3,90,0.00,,,0.00,WeatherDisplay:10.37,2013-03-19 09:57:00,
2013-03-19 06:02:00,33.7,31.1,29.71,SE,138,0.0,17.3,90,0.00,,,0.00,WeatherDisplay:10.37,2013-03-19 10:02:00,
2013-03-19 06:07:00,33.7,31.1,29.71,SSE,153,0.1,17.3,90,0.00,,,0.00,WeatherDisplay:10.37,2013-03-19 10:07:00,
2013-03-19 06:12:00,33.7,31.4,29.72,SSE,153,0.0,17.3,91,0.00,,,0.00,WeatherDisplay:10.37,2013-03-19 10:12:00,
2013-03-19 06:17:00,33.6,31.3,29.72,SSE,163,1.2,17.3,91,0.00,,,0.00,WeatherDisplay:10.37,2013-03-19 10:17:00,
2013-03-19 06:22:00,33.7,31.4,29.72,SSE,163,0.0,17.3,91,0.00,,,0.00,WeatherDisplay:10.37,2013-03-19 10:22:00,
2013-03-19 06:27:00,33.7,31.4,29.73,SSE,160,0.0,17.3,91,0.00,,,0.00,WeatherDisplay:10.37,2013-03-19 10:27:00,
2013-03-19 06:32:00,33.8,31.5,29.74,SSE,160,0.0,17.3,91,0.00,,,0.00,WeatherDisplay:10.37,2013-03-19 10:32:00,
2013-03-19 06:37:00,33.9,31.6,29.74,SSW,212,0.1,17.3,91,0.00,,,0.00,WeatherDisplay:10.37,2013-03-19 10:37:00,
2013-03-19 06:42:00,34.0,31.6,29.74,SW,214,0.1,17.3,91,0.00,,,0.00,WeatherDisplay:10.37,2013-03-19 10:42:00,
2013-03-19 06:47:00,34.1,31.7,29.74,SW,236,0.2,17.3,91,0.00,,,0.00,WeatherDisplay:10.37,2013-03-19 10:47:00,
2013-03-19 06:52:00,34.3,31.9,29.74,SSW,210,0.5,17.3,91,0.00,,,0.00,WeatherDisplay:10.37,2013-03-19 10:52:00,
2013-03-19 06:57:00,34.4,32.0,29.75,SW,217,0.4,17.3,91,0.00,,,0.00,WeatherDisplay:10.37,2013-03-19 10:57:00,
2013-03-19 07:02:00,34.3,31.9,29.75,SW,227,1.0,17.3,91,0.00,,,0.00,WeatherDisplay:10.37,2013-03-19 11:02:00,
2013-03-19 07:07:00,34.4,32.0,29.75,South,190,1.0,17.3,91,0.00,,,0.00,WeatherDisplay:10.37,2013-03-19 11:07:00,
2013-03-19 07:12:00,34.3,31.9,29.75,SSW,197,0.0,17.3,91,0.00,,,0.00,WeatherDisplay:10.37,2013-03-19 11:12:00,
2013-03-19 07:17:00,34.3,31.9,29.75,SSW,207,1.7,17.3,91,0.00,,,0.00,WeatherDisplay:10.37,2013-03-19 11:17:00,
2013-03-19 07:22:00,34.4,32.0,29.75,South,170,0.0,17.3,91,0.00,,,0.00,WeatherDisplay:10.37,2013-03-19 11:22:00,
2013-03-19 07:27:00,34.4,32.0,29.75,SE,134,0.5,17.3,91,0.00,,,0.00,WeatherDisplay:10.37,2013-03-19 11:27:00,
2013-03-19 07:32:00,34.5,32.1,29.75,SW,215,0.0,17.3,91,0.00,,,0.00,WeatherDisplay:10.37,2013-03-19 11:32:00,
2013-03-19 07:37:00,34.5,32.1,29.75,ESE,103,0.0,17.3,91,0.00,,,0.00,WeatherDisplay:10.37,2013-03-19 11:37:00,
2013-03-19 07:42:00,34.5,32.1,29.75,South,179,0.0,17.3,91,0.00,,,0.00,WeatherDisplay:10.37,2013-03-19 11:42:00,
2013-03-19 07:47:00,34.5,32.1,29.75,SSE,167,0.0,17.3,91,0.00,,,0.00,WeatherDisplay:10.37,2013-03-19 11:47:00,
2013-03-19 07:52:00,34.6,32.2,29.75,South,181,0.0,17.3,91,0.00,,,0.00,WeatherDisplay:10.37,2013-03-19 11:52:00,
2013-03-19 07:57:00,34.7,32.3,29.75,South,179,1.5,17.3,91,0.00,,,0.00,WeatherDisplay:10.37,2013-03-19 11:57:00,
2013-03-19 08:02:00,34.7,32.1,29.74,South,177,0.0,17.3,90,0.00,,,0.00,WeatherDisplay:10.37,2013-03-19 12:02:00,
2013-03-19 08:07:00,34.8,32.2,29.74,SSE,165,0.0,17.3,90,0.00,,,0.00,WeatherDisplay:10.37,2013-03-19 12:07:00,
2013-03-19 08:12:00,34.9,32.3,29.74,ESE,103,0.2,17.3,90,0.00,,,0.00,WeatherDisplay:10.37,2013-03-19 12:12:00,
2013-03-19 08:17:00,34.9,32.0,29.74,SSE,160,1.2,17.3,89,0.00,,,0.00,WeatherDisplay:10.37,2013-03-19 12:17:00,
2013-03-19 08:22:00,35.0,32.1,29.74,SSE,158,0.1,17.3,89,0.00,,,0.00,WeatherDisplay:10.37,2013-03-19 12:22:00,
2013-03-19 08:27:00,35.1,32.2,29.74,SE,139,0.1,17.3,89,0.00,,,0.00,WeatherDisplay:10.37,2013-03-19 12:27:00,
2013-03-19 08:32:00,35.1,31.9,29.74,SE,139,0.0,17.3,88,0.00,,,0.00,WeatherDisplay:10.37,2013-03-19 12:32:00,
2013-03-19 08:37:00,35.1,31.9,29.74,SSW,198,0.5,17.3,88,0.00,,,0.00,WeatherDisplay:10.37,2013-03-19 12:37:00,
2013-03-19 08:42:00,35.2,32.0,29.73,East,89,0.2,17.3,88,0.00,,,0.00,WeatherDisplay:10.37,2013-03-19 12:42:00,
2013-03-19 08:47:00,35.3,32.1,29.74,East,89,0.0,17.3,88,0.00,,,0.00,WeatherDisplay:10.37,2013-03-19 12:47:00,
2013-03-19 08:52:00,35.3,32.1,29.74,South,174,0.7,17.3,88,0.00,,,0.00,WeatherDisplay:10.37,2013-03-19 12:52:00,
2013-03-19 08:57:00,35.3,32.1,29.74,SSE,165,0.0,17.3,88,0.00,,,0.00,WeatherDisplay:10.37,2013-03-19 12:57:00,
2013-03-19 09:02:00,35.3,32.1,29.74,SE,133,0.0,17.3,88,0.00,,,0.00,WeatherDisplay:10.37,2013-03-19 13:02:00,
2013-03-19 09:07:00,35.4,32.2,29.73,SW,218,0.5,17.3,88,0.00,,,0.00,WeatherDisplay:10.37,2013-03-19 13:07:00,
2013-03-19 09:12:00,35.4,32.2,29.74,SW,218,0.0,17.3,88,0.00,,,0.00,WeatherDisplay:10.37,2013-03-19 13:12:00,
2013-03-19 09:17:00,35.5,32.3,29.74,WSW,242,0.0,17.3,88,0.00,,,0.00,WeatherDisplay:10.37,2013-03-19 13:17:00,
2013-03-19 09:22:00,35.5,32.3,29.73,SE,142,0.3,17.3,88,0.00,,,0.00,WeatherDisplay:10.37,2013-03-19 13:22:00,
2013-03-19 09:27:00,35.8,32.6,29.73,SSW,193,0.0,17.3,88,0.01,RA,,0.01,WeatherDisplay:10.37,2013-03-19 13:27:00,
2013-03-19 09:32:00,36.1,32.9,29.73,ESE,121,0.8,17.3,88,0.01,RA,,0.01,WeatherDisplay:10.37,2013-03-19 13:32:00,
2013-03-19 09:37:00,36.3,32.8,29.73,SW,219,0.0,17.3,87,0.01,,,0.01,WeatherDisplay:10.37,2013-03-19 13:37:00,
2013-03-19 09:42:00,36.4,32.6,29.73,WNW,290,0.0,17.3,86,0.01,,,0.01,WeatherDisplay:10.37,2013-03-19 13:42:00,
2013-03-19 09:47:00,36.8,33.0,29.72,SE,142,0.0,17.3,86,0.02,RA,,0.02,WeatherDisplay:10.37,2013-03-19 13:47:00,
2013-03-19 09:52:00,37.0,32.6,29.72,SSW,203,0.1,17.3,84,0.02,RA,,0.02,WeatherDisplay:10.37,2013-03-19 13:52:00,
2013-03-19 09:57:00,37.2,32.8,29.72,South,181,1.0,17.3,84,0.02,,,0.02,WeatherDisplay:10.37,2013-03-19 13:57:00,
2013-03-19 10:02:00,37.2,32.5,29.72,South,183,0.0,17.3,83,0.03,RA,,0.03,WeatherDisplay:10.37,2013-03-19 14:02:00,
2013-03-19 10:07:00,37.2,32.5,29.71,SE,129,0.8,17.3,83,0.03,RA,,0.03,WeatherDisplay:10.37,2013-03-19 14:07:00,
2013-03-19 10:12:00,37.2,32.5,29.71,NE,52,1.3,17.3,83,0.03,,,0.03,WeatherDisplay:10.37,2013-03-19 14:12:00,
2013-03-19 10:17:00,37.1,32.4,29.71,ESE,122,0.0,17.3,83,0.03,,,0.03,WeatherDisplay:10.37,2013-03-19 14:17:00,
2013-03-19 10:22:00,37.1,32.4,29.71,East,90,2.1,17.3,83,0.04,RA,,0.04,WeatherDisplay:10.37,2013-03-19 14:22:00,
2013-03-19 10:27:00,37.0,32.3,29.71,ESE,103,0.2,17.3,83,0.03,RA,,0.04,WeatherDisplay:10.37,2013-03-19 14:27:00,
2013-03-19 10:32:00,37.1,32.1,29.71,WSW,242,0.6,17.3,82,0.03,,,0.04,WeatherDisplay:10.37,2013-03-19 14:32:00,
2013-03-19 10:37:00,37.2,31.9,29.71,SSE,159,0.2,17.3,81,0.03,,,0.04,WeatherDisplay:10.37,2013-03-19 14:37:00,
2013-03-19 10:42:00,37.4,32.1,29.71,SE,136,0.0,17.3,81,0.03,,,0.04,WeatherDisplay:10.37,2013-03-19 14:42:00,
2013-03-19 10:47:00,37.4,32.1,29.71,West,260,2.2,17.3,81,0.03,RA,,0.05,WeatherDisplay:10.37,2013-03-19 14:47:00,
2013-03-19 10:52:00,37.2,31.9,29.71,West,262,2.7,17.3,81,0.03,RA,,0.05,WeatherDisplay:10.37,2013-03-19 14:52:00,
2013-03-19 10:57:00,36.9,31.9,29.71,North,349,0.7,17.3,82,0.03,,,0.05,WeatherDisplay:10.37,2013-03-19 14:57:00,
2013-03-19 11:02:00,36.9,31.9,29.71,SW,233,0.8,17.3,82,0.02,,,0.05,WeatherDisplay:10.37,2013-03-19 15:02:00,
2013-03-19 11:07:00,37.0,32.0,29.71,SW,233,0.8,17.3,82,0.03,RA,,0.06,WeatherDisplay:10.37,2013-03-19 15:07:00,
2013-03-19 11:12:00,37.1,32.1,29.71,SW,233,0.0,17.3,82,0.03,RA,,0.06,WeatherDisplay:10.37,2013-03-19 15:12:00,
2013-03-19 11:17:00,37.3,32.0,29.70,East,85,0.7,17.3,81,0.03,,,0.06,WeatherDisplay:10.37,2013-03-19 15:17:00,
2013-03-19 11:22:00,37.4,31.5,29.70,SW,226,1.7,17.3,79,0.02,,,0.06,WeatherDisplay:10.37,2013-03-19 15:22:00,
2013-03-19 11:27:00,37.4,32.1,29.71,SSW,195,0.0,17.3,81,0.02,,,0.06,WeatherDisplay:10.37,2013-03-19 15:27:00,
2013-03-19 11:32:00,37.4,31.8,29.71,SSW,194,0.0,17.3,80,0.03,RA,,0.07,WeatherDisplay:10.37,2013-03-19 15:32:00,
2013-03-19 11:37:00,37.4,31.8,29.71,SW,224,0.0,17.3,80,0.03,RA,,0.07,WeatherDisplay:10.37,2013-03-19 15:37:00,
2013-03-19 11:42:00,37.2,31.9,29.71,West,270,1.0,17.3,81,0.03,,,0.07,WeatherDisplay:10.37,2013-03-19 15:42:00,
2013-03-19 11:47:00,37.0,32.0,29.71,West,280,1.7,17.3,82,0.02,,,0.07,WeatherDisplay:10.37,2013-03-19 15:47:00,
2013-03-19 11:52:00,36.7,31.1,29.71,WNW,293,0.7,17.3,80,0.02,,,0.07,WeatherDisplay:10.37,2013-03-19 15:52:00,
2013-03-19 11:57:00,36.3,30.4,29.72,WSW,255,4.8,17.3,79,0.02,,,0.08,WeatherDisplay:10.37,2013-03-19 15:57:00,
2013-03-19 12:02:00,35.9,29.4,29.72,West,271,4.4,17.3,77,0.03,RA,,0.08,WeatherDisplay:10.37,2013-03-19 16:02:00,
2013-03-19 12:07:00,35.5,29.3,29.72,West,262,5.2,17.3,78,0.02,RA,,0.08,WeatherDisplay:10.37,2013-03-19 16:07:00,
2013-03-19 12:12:00,35.1,28.6,29.72,West,278,6.1,17.3,77,0.02,,,0.08,WeatherDisplay:10.37,2013-03-19 16:12:00,
2013-03-19 12:17:00,34.9,28.7,29.72,SW,217,4.7,17.3,78,0.02,,,0.08,WeatherDisplay:10.37,2013-03-19 16:17:00,
2013-03-19 12:22:00,34.7,28.5,29.72,SW,228,8.3,17.3,78,0.02,,,0.08,WeatherDisplay:10.37,2013-03-19 16:22:00,
2013-03-19 12:27:00,34.4,28.9,29.73,WSW,242,7.3,17.3,80,0.02,,,0.08,WeatherDisplay:10.37,2013-03-19 16:27:00,
2013-03-19 12:32:00,33.8,27.7,29.73,West,270,8.4,17.3,78,0.01,,,0.08,WeatherDisplay:10.37,2013-03-19 16:32:00,
2013-03-19 12:37:00,33.5,27.7,29.73,WNW,287,7.7,17.3,79,0.01,,,0.08,WeatherDisplay:10.37,2013-03-19 16:37:00,
2013-03-19 12:42:00,33.3,27.5,29.73,SSW,198,4.6,17.3,79,0.01,,,0.08,WeatherDisplay:10.37,2013-03-19 16:42:00,
2013-03-19 12:47:00,33.1,26.4,29.73,West,278,5.6,17.3,76,0.01,,,0.08,WeatherDisplay:10.37,2013-03-19 16:47:00,
2013-03-19 12:52:00,33.0,26.3,29.73,West,262,2.2,17.3,76,0.01,,,0.08,WeatherDisplay:10.37,2013-03-19 16:52:00,
2013-03-19 12:57:00,33.2,26.5,29.73,WSW,245,6.7,17.3,76,0.02,RA,,0.09,WeatherDisplay:10.37,2013-03-19 16:57:00,
2013-03-19 13:02:00,33.2,25.8,29.73,WNW,290,6.8,17.3,74,0.01,RA,,0.09,WeatherDisplay:10.37,2013-03-19 17:02:00,
2013-03-19 13:07:00,33.2,26.1,29.73,South,187,5.0,17.3,75,0.01,,,0.09,WeatherDisplay:10.37,2013-03-19 17:07:00,
2013-03-19 13:12:00,33.1,26.0,29.73,SW,226,5.4,17.3,75,0.01,,,0.09,WeatherDisplay:10.37,2013-03-19 17:12:00,
2013-03-19 13:17:00,33.1,26.0,29.73,West,273,4.5,17.3,75,0.01,,,0.09,WeatherDisplay:10.37,2013-03-19 17:17:00,
2013-03-19 13:22:00,33.2,25.8,29.73,SW,235,4.3,17.3,74,0.01,,,0.09,WeatherDisplay:10.37,2013-03-19 17:22:00,
2013-03-19 13:27:00,33.6,25.9,29.73,WSW,250,6.3,17.3,73,0.01,,,0.09,WeatherDisplay:10.37,2013-03-19 17:27:00,
2013-03-19 13:32:00,34.0,26.3,29.73,WSW,250,4.5,17.3,73,0.01,,,0.09,WeatherDisplay:10.37,2013-03-19 17:32:00,
2013-03-19 13:37:00,34.1,26.0,29.73,West,278,5.0,17.3,72,0.01,,,0.09,WeatherDisplay:10.37,2013-03-19 17:37:00,
2013-03-19 13:42:00,34.2,25.8,29.73,SW,224,5.0,17.3,71,0.02,RA,,0.10,WeatherDisplay:10.37,2013-03-19 17:42:00,
2013-03-19 13:47:00,34.3,26.2,29.73,West,263,7.0,17.3,72,0.02,RA,,0.10,WeatherDisplay:10.37,2013-03-19 17:47:00,
2013-03-19 13:52:00,34.1,25.7,29.73,WSW,248,9.6,17.3,71,0.02,,,0.10,WeatherDisplay:10.37,2013-03-19 17:52:00,
2013-03-19 13:58:00,33.9,25.5,29.74,WSW,245,7.8,17.3,71,0.01,,,0.10,WeatherDisplay:10.37,2013-03-19 17:58:00,
2013-03-19 14:02:00,33.8,25.4,29.73,West,273,6.9,17.3,71,0.01,,,0.10,WeatherDisplay:10.37,2013-03-19 18:02:00,
2013-03-19 14:07:00,33.7,25.0,29.74,SW,217,9.6,18.4,70,0.01,,,0.10,WeatherDisplay:10.37,2013-03-19 18:07:00,
2013-03-19 14:12:00,33.5,24.8,29.74,SSW,197,8.8,18.4,70,0.01,,,0.10,WeatherDisplay:10.37,2013-03-19 18:12:00,
2013-03-19 14:18:00,33.6,24.5,29.74,West,267,8.4,18.4,69,0.01,,,0.10,WeatherDisplay:10.37,2013-03-19 18:18:00,
2013-03-19 14:22:00,34.1,25.3,29.74,West,266,7.2,18.4,70,0.02,RA,,0.11,WeatherDisplay:10.37,2013-03-19 18:22:00,
2013-03-19 14:28:00,34.1,24.3,29.74,SW,226,9.5,18.4,67,0.02,RA,,0.11,WeatherDisplay:10.37,2013-03-19 18:28:00,
2013-03-19 14:33:00,34.5,23.9,29.74,WNW,285,8.0,18.4,65,0.02,,,0.11,WeatherDisplay:10.37,2013-03-19 18:33:00,
2013-03-19 14:38:00,35.0,24.8,29.75,WSW,242,7.2,18.4,66,0.02,,,0.11,WeatherDisplay:10.37,2013-03-19 18:38:00,
2013-03-19 14:43:00,34.7,23.8,29.74,West,281,5.6,18.4,64,0.02,RA,,0.12,WeatherDisplay:10.37,2013-03-19 18:43:00,
2013-03-19 14:48:00,33.9,23.4,29.74,SSW,193,8.3,18.4,65,0.02,,,0.12,WeatherDisplay:10.37,2013-03-19 18:48:00,
2013-03-19 14:53:00,33.7,23.9,29.75,SW,222,6.5,18.4,67,0.02,,,0.12,WeatherDisplay:10.37,2013-03-19 18:53:00,
2013-03-19 14:58:00,33.4,22.9,29.74,NW,314,6.8,18.4,65,0.02,,,0.12,WeatherDisplay:10.37,2013-03-19 18:58:00,
2013-03-19 15:03:00,33.5,23.0,29.75,WSW,257,7.9,18.4,65,0.02,,,0.12,WeatherDisplay:10.37,2013-03-19 19:03:00,
2013-03-19 15:08:00,33.4,23.3,29.75,West,271,8.6,18.4,66,0.02,,,0.12,WeatherDisplay:10.37,2013-03-19 19:08:00,
2013-03-19 15:13:00,33.3,22.4,29.75,West,264,8.8,19.0,64,0.02,,,0.12,WeatherDisplay:10.37,2013-03-19 19:13:00,
2013-03-19 15:18:00,33.2,22.0,29.75,SW,236,6.1,19.6,63,0.02,,,0.12,WeatherDisplay:10.37,2013-03-19 19:18:00,
2013-03-19 15:23:00,33.2,22.0,29.75,WSW,253,9.3,19.6,63,0.01,,,0.12,WeatherDisplay:10.37,2013-03-19 19:23:00,
2013-03-19 15:28:00,33.9,21.9,29.75,WSW,248,7.1,19.6,61,0.01,,,0.12,WeatherDisplay:10.37,2013-03-19 19:28:00,
2013-03-19 15:33:00,33.9,20.7,29.75,WSW,249,9.2,24.2,58,0.01,,,0.12,WeatherDisplay:10.37,2013-03-19 19:33:00,
2013-03-19 15:38:00,33.9,21.1,29.75,WSW,247,9.7,24.2,59,0.00,,,0.12,WeatherDisplay:10.37,2013-03-19 19:38:00,
2013-03-19 15:43:00,34.4,21.5,29.76,SSW,204,9.8,24.2,59,0.00,,,0.12,WeatherDisplay:10.37,2013-03-19 19:43:00,
2013-03-19 15:48:00,34.1,21.7,29.76,West,269,8.5,24.2,60,0.01,RA,,0.13,WeatherDisplay:10.37,2013-03-19 19:48:00,
2013-03-19 15:53:00,34.0,21.6,29.77,SSW,212,10.8,24.2,60,0.01,RA,,0.13,WeatherDisplay:10.37,2013-03-19 19:53:00,
2013-03-19 15:58:00,33.9,22.2,29.76,WSW,252,4.5,24.2,62,0.01,,,0.13,WeatherDisplay:10.37,2013-03-19 19:58:00,
2013-03-19 16:03:00,33.9,21.1,29.76,WSW,252,13.0,24.2,59,0.01,,,0.13,WeatherDisplay:10.37,2013-03-19 20:03:00,
2013-03-19 16:08:00,33.5,21.1,29.76,West,274,7.9,24.2,60,0.01,,,0.13,WeatherDisplay:10.37,2013-03-19 20:08:00,
2013-03-19 16:13:00,33.2,20.8,29.76,WNW,283,8.1,24.2,60,0.01,,,0.13,WeatherDisplay:10.37,2013-03-19 20:13:00,
2013-03-19 16:18:00,33.8,20.2,29.77,SW,229,10.7,24.2,57,0.01,,,0.13,WeatherDisplay:10.37,2013-03-19 20:18:00,
2013-03-19 16:23:00,33.7,20.1,29.77,WNW,290,10.8,24.2,57,0.01,,,0.13,WeatherDisplay:10.37,2013-03-19 20:23:00,
2013-03-19 16:28:00,33.3,20.1,29.77,SW,233,10.3,24.2,58,0.01,,,0.13,WeatherDisplay:10.37,2013-03-19 20:28:00,
2013-03-19 16:33:00,33.1,20.7,29.77,SSW,212,7.0,24.2,60,0.01,,,0.13,WeatherDisplay:10.37,2013-03-19 20:33:00,
2013-03-19 16:38:00,33.2,21.2,29.77,SW,218,6.4,24.2,61,0.01,,,0.13,WeatherDisplay:10.37,2013-03-19 20:38:00,
2013-03-19 16:43:00,33.1,20.3,29.77,WSW,250,10.3,24.2,59,0.01,,,0.13,WeatherDisplay:10.37,2013-03-19 20:43:00,
2013-03-19 16:48:00,33.3,20.5,29.78,SW,219,10.7,24.2,59,0.00,,,0.13,WeatherDisplay:10.37,2013-03-19 20:48:00,
2013-03-19 16:53:00,33.1,20.3,29.77,WSW,248,8.3,24.2,59,0.00,,,0.13,WeatherDisplay:10.37,2013-03-19 20:53:00,
2013-03-19 16:58:00,32.5,20.9,29.77,SW,235,6.9,24.2,62,0.00,,,0.13,WeatherDisplay:10.37,2013-03-19 20:58:00,
2013-03-19 17:03:00,32.3,20.7,29.78,SW,224,8.8,24.2,62,0.00,,,0.13,WeatherDisplay:10.37,2013-03-19 21:03:00,
2013-03-19 17:08:00,32.1,20.5,29.78,WSW,242,9.5,24.2,62,0.00,,,0.13,WeatherDisplay:10.37,2013-03-19 21:08:00,
2013-03-19 17:13:00,32.1,20.5,29.77,West,278,8.7,24.2,62,0.00,,,0.13,WeatherDisplay:10.37,2013-03-19 21:13:00,
2013-03-19 17:18:00,31.6,20.4,29.78,WSW,253,8.5,24.2,63,0.00,,,0.13,WeatherDisplay:10.37,2013-03-19 21:18:00,
2013-03-19 17:23:00,31.2,20.4,29.78,SW,221,8.7,24.2,64,0.00,,,0.13,WeatherDisplay:10.37,2013-03-19 21:23:00,
2013-03-19 17:28:00,31.2,20.8,29.79,SW,226,7.5,24.2,65,0.00,,,0.13,WeatherDisplay:10.37,2013-03-19 21:28:00,
2013-03-19 17:33:00,31.1,20.0,29.79,WSW,255,13.1,24.2,63,0.00,,,0.13,WeatherDisplay:10.37,2013-03-19 21:33:00,
2013-03-19 17:38:00,30.8,19.7,29.79,West,271,9.1,25.3,63,0.00,,,0.13,WeatherDisplay:10.37,2013-03-19 21:38:00,
2013-03-19 17:43:00,30.8,19.7,29.79,SW,229,10.3,25.3,63,0.00,,,0.13,WeatherDisplay:10.37,2013-03-19 21:43:00,
2013-03-19 17:48:00,30.8,20.0,29.80,WSW,257,10.4,25.3,64,0.00,,,0.13,WeatherDisplay:10.37,2013-03-19 21:48:00,
2013-03-19 17:53:00,30.7,19.6,29.80,SW,222,12.9,25.3,63,0.00,,,0.13,WeatherDisplay:10.37,2013-03-19 21:53:00,
2013-03-19 17:58:00,30.4,20.4,29.80,WSW,240,9.4,25.3,66,0.00,,,0.13,WeatherDisplay:10.37,2013-03-19 21:58:00,
2013-03-19 18:03:00,30.2,20.9,29.81,West,281,9.2,25.3,68,0.00,,,0.13,WeatherDisplay:10.37,2013-03-19 22:03:00,
2013-03-19 18:08:00,29.9,21.3,29.80,WSW,257,8.3,25.3,70,0.00,,,0.13,WeatherDisplay:10.37,2013-03-19 22:08:00,
2013-03-19 18:13:00,29.7,20.4,29.81,West,276,8.0,25.3,68,0.00,,,0.13,WeatherDisplay:10.37,2013-03-19 22:13:00,
2013-03-19 18:18:00,29.7,20.8,29.81,WNW,287,7.7,25.3,69,0.00,,,0.13,WeatherDisplay:10.37,2013-03-19 22:18:00,
2013-03-19 18:23:00,29.6,20.7,29.81,SW,232,9.7,25.3,69,0.00,,,0.13,WeatherDisplay:10.37,2013-03-19 22:23:00,
2013-03-19 18:28:00,29.5,20.6,29.81,WSW,238,9.1,25.3,69,0.00,,,0.13,WeatherDisplay:10.37,2013-03-19 22:28:00,
2013-03-19 18:33:00,29.3,21.4,29.81,WSW,257,9.8,25.3,72,0.00,,,0.13,WeatherDisplay:10.37,2013-03-19 22:33:00,
2013-03-19 18:38:00,29.0,21.7,29.82,WSW,257,7.8,25.3,74,0.00,,,0.13,WeatherDisplay:10.37,2013-03-19 22:38:00,
2013-03-19 18:43:00,28.8,21.6,29.82,WSW,239,4.8,25.3,74,0.00,,,0.13,WeatherDisplay:10.37,2013-03-19 22:43:00,
2013-03-19 18:48:00,28.8,21.6,29.82,West,266,5.3,25.3,74,0.00,,,0.13,WeatherDisplay:10.37,2013-03-19 22:48:00,
2013-03-19 18:53:00,28.8,21.2,29.82,West,274,5.4,25.3,73,0.00,,,0.13,WeatherDisplay:10.37,2013-03-19 22:53:00,
2013-03-19 18:58:00,28.9,20.3,29.82,SW,215,8.7,25.3,70,0.00,,,0.13,WeatherDisplay:10.37,2013-03-19 22:58:00,
2013-03-19 19:03:00,28.9,20.3,29.82,SW,217,6.7,25.3,70,0.00,,,0.13,WeatherDisplay:10.37,2013-03-19 23:03:00,
2013-03-19 19:08:00,28.9,20.3,29.82,WSW,239,6.1,25.3,70,0.00,,,0.13,WeatherDisplay:10.37,2013-03-19 23:08:00,
2013-03-19 19:13:00,28.7,20.1,29.82,SW,225,7.3,25.3,70,0.00,,,0.13,WeatherDisplay:10.37,2013-03-19 23:13:00,
2013-03-19 19:18:00,28.7,20.1,29.82,WSW,245,4.1,25.3,70,0.00,,,0.13,WeatherDisplay:10.37,2013-03-19 23:18:00,
2013-03-19 19:23:00,28.6,20.1,29.82,SW,215,6.6,25.3,70,0.00,,,0.13,WeatherDisplay:10.37,2013-03-19 23:23:00,
2013-03-19 19:28:00,28.5,20.3,29.82,WSW,242,8.2,25.3,71,0.00,,,0.13,WeatherDisplay:10.37,2013-03-19 23:28:00,
2013-03-19 19:33:00,28.4,20.8,29.82,SSW,205,7.7,25.3,73,0.00,,,0.13,WeatherDisplay:10.37,2013-03-19 23:33:00,
2013-03-19 19:38:00,28.2,21.0,29.82,SW,226,5.7,25.3,74,0.00,,,0.13,WeatherDisplay:10.37,2013-03-19 23:38:00,
2013-03-19 19:43:00,27.8,21.8,29.82,WSW,256,8.6,25.3,78,0.00,,,0.13,WeatherDisplay:10.37,2013-03-19 23:43:00,
2013-03-19 19:48:00,27.5,22.1,29.82,NW,308,10.8,25.3,80,0.00,,,0.13,WeatherDisplay:10.37,2013-03-19 23:48:00,
2013-03-19 19:53:00,27.2,22.4,29.82,WNW,301,5.0,25.3,82,0.00,,,0.13,WeatherDisplay:10.37,2013-03-19 23:53:00,
2013-03-19 19:58:00,27.1,22.3,29.82,SW,218,3.1,25.3,82,0.00,,,0.13,WeatherDisplay:10.37,2013-03-19 23:58:00,
2013-03-19 20:03:00,27.1,22.3,29.82,West,264,5.3,25.3,82,0.00,,,0.13,WeatherDisplay:10.37,2013-03-20 00:03:00,
2013-03-19 20:08:00,27.2,21.2,29.82,WSW,245,11.4,25.3,78,0.00,,,0.13,WeatherDisplay:10.37,2013-03-20 00:08:00,
2013-03-19 20:13:00,27.4,21.1,29.82,SW,224,8.2,25.3,77,0.00,,,0.13,WeatherDisplay:10.37,2013-03-20 00:13:00,
2013-03-19 20:18:00,27.4,21.1,29.83,SW,217,10.7,25.3,77,0.00,,,0.13,WeatherDisplay:10.37,2013-03-20 00:18:00,
2013-03-19 20:23:00,27.4,20.5,29.83,SW,229,8.6,25.3,75,0.00,,,0.13,WeatherDisplay:10.37,2013-03-20 00:23:00,
2013-03-19 20:28:00,27.4,20.8,29.83,WNW,300,6.0,25.3,76,0.00,,,0.13,WeatherDisplay:10.37,2013-03-20 00:28:00,
2013-03-19 20:33:00,27.3,20.7,29.83,WSW,248,7.1,25.3,76,0.00,,,0.13,WeatherDisplay:10.37,2013-03-20 00:33:00,
2013-03-19 20:38:00,27.3,20.7,29.83,WSW,254,8.5,25.3,76,0.00,,,0.13,WeatherDisplay:10.37,2013-03-20 00:38:00,
2013-03-19 20:43:00,27.3,21.0,29.83,West,262,6.5,25.3,77,0.00,,,0.13,WeatherDisplay:10.37,2013-03-20 00:43:00,
2013-03-19 20:48:00,27.2,20.9,29.83,SSW,208,5.0,25.3,77,0.00,,,0.13,WeatherDisplay:10.37,2013-03-20 00:48:00,
2013-03-19 20:53:00,27.1,20.8,29.83,WSW,257,5.0,25.3,77,0.00,,,0.13,WeatherDisplay:10.37,2013-03-20 00:53:00,
2013-03-19 20:58:00,27.0,21.1,29.83,SW,224,4.6,25.3,78,0.00,,,0.13,WeatherDisplay:10.37,2013-03-20 00:58:00,
2013-03-19 21:03:00,27.0,20.7,29.83,WSW,245,4.5,25.3,77,0.00,,,0.13,WeatherDisplay:10.37,2013-03-20 01:03:00,
2013-03-19 21:08:00,26.9,20.7,29.83,West,269,2.3,25.3,77,0.00,,,0.13,WeatherDisplay:10.37,2013-03-20 01:08:00,
2013-03-19 21:13:00,26.9,20.7,29.83,SW,226,4.4,25.3,77,0.00,,,0.13,WeatherDisplay:10.37,2013-03-20 01:13:00,
2013-03-19 21:18:00,26.8,20.9,29.83,SSW,200,6.3,25.3,78,0.00,,,0.13,WeatherDisplay:10.37,2013-03-20 01:18:00,
2013-03-19 21:23:00,26.8,20.9,29.83,WSW,252,6.5,25.3,78,0.00,,,0.13,WeatherDisplay:10.37,2013-03-20 01:23:00,
2013-03-19 21:28:00,26.8,20.9,29.83,WSW,250,4.2,25.3,78,0.00,,,0.13,WeatherDisplay:10.37,2013-03-20 01:28:00,
2013-03-19 21:33:00,26.7,20.8,29.83,West,278,6.4,25.3,78,0.00,,,0.13,WeatherDisplay:10.37,2013-03-20 01:33:00,
2013-03-19 21:38:00,26.7,20.8,29.83,West,280,2.4,25.3,78,0.00,,,0.13,WeatherDisplay:10.37,2013-03-20 01:38:00,
2013-03-19 21:43:00,26.7,20.8,29.83,SW,226,3.6,25.3,78,0.00,,,0.13,WeatherDisplay:10.37,2013-03-20 01:43:00,
2013-03-19 21:48:00,26.7,20.5,29.83,SW,222,4.3,25.3,77,0.00,,,0.13,WeatherDisplay:10.37,2013-03-20 01:48:00,
2013-03-19 21:53:00,26.7,20.5,29.83,SW,232,2.1,25.3,77,0.00,,,0.13,WeatherDisplay:10.37,2013-03-20 01:53:00,
2013-03-19 21:58:00,26.6,20.4,29.83,SW,231,4.4,25.3,77,0.00,,,0.13,WeatherDisplay:10.37,2013-03-20 01:58:00,
2013-03-19 22:03:00,26.6,20.4,29.83,SW,217,5.4,25.3,77,0.00,,,0.13,WeatherDisplay:10.37,2013-03-20 02:03:00,
2013-03-19 22:08:00,26.6,20.4,29.83,WSW,252,3.1,25.3,77,0.00,,,0.13,WeatherDisplay:10.37,2013-03-20 02:08:00,
2013-03-19 22:13:00,26.6,20.7,29.83,SSW,205,2.3,25.3,78,0.00,,,0.13,WeatherDisplay:10.37,2013-03-20 02:13:00,
2013-03-19 22:18:00,26.4,20.2,29.83,SW,225,2.7,25.3,77,0.00,,,0.13,WeatherDisplay:10.37,2013-03-20 02:18:00,
2013-03-19 22:23:00,26.4,20.2,29.83,SW,222,1.5,25.3,77,0.00,,,0.13,WeatherDisplay:10.37,2013-03-20 02:23:00,
2013-03-19 22:28:00,26.4,20.5,29.83,WSW,240,1.7,25.3,78,0.00,,,0.13,WeatherDisplay:10.37,2013-03-20 02:28:00,
2013-03-19 22:33:00,26.4,20.5,29.83,WSW,247,3.1,25.3,78,0.00,,,0.13,WeatherDisplay:10.37,2013-03-20 02:33:00,
2013-03-19 22:38:00,26.4,20.5,29.83,SW,232,2.8,25.3,78,0.00,,,0.13,WeatherDisplay:10.37,2013-03-20 02:38:00,
2013-03-19 22:43:00,26.4,20.2,29.83,SW,218,1.7,25.3,77,0.00,,,0.13,WeatherDisplay:10.37,2013-03-20 02:43:00,
2013-03-19 22:48:00,26.5,20.0,29.83,WNW,283,3.0,25.3,76,0.00,,,0.13,WeatherDisplay:10.37,2013-03-20 02:48:00,
2013-03-19 22:53:00,26.6,20.4,29.83,SW,226,2.7,25.3,77,0.00,,,0.13,WeatherDisplay:10.37,2013-03-20 02:53:00,
2013-03-19 22:58:00,26.6,19.7,29.83,SW,222,5.0,25.3,75,0.00,,,0.13,WeatherDisplay:10.37,2013-03-20 02:58:00,
2013-03-19 23:03:00,26.7,19.8,29.83,SW,221,5.4,25.3,75,0.00,,,0.13,WeatherDisplay:10.37,2013-03-20 03:03:00,
2013-03-19 23:08:00,26.8,19.9,29.83,SW,232,3.4,25.3,75,0.00,,,0.13,WeatherDisplay:10.37,2013-03-20 03:08:00,
2013-03-19 23:13:00,26.9,20.0,29.83,SSW,193,5.3,25.3,75,0.00,,,0.13,WeatherDisplay:10.37,2013-03-20 03:13:00,
2013-03-19 23:18:00,26.9,19.7,29.83,SW,223,4.5,25.3,74,0.00,,,0.13,WeatherDisplay:10.37,2013-03-20 03:18:00,
2013-03-19 23:23:00,27.0,20.1,29.83,WSW,245,2.7,25.3,75,0.00,,,0.13,WeatherDisplay:10.37,2013-03-20 03:23:00,
2013-03-19 23:28:00,27.0,20.1,29.83,WSW,239,4.0,25.3,75,0.00,,,0.13,WeatherDisplay:10.37,2013-03-20 03:28:00,
2013-03-19 23:33:00,27.0,19.8,29.83,NW,321,4.9,25.3,74,0.00,,,0.13,WeatherDisplay:10.37,2013-03-20 03:33:00,
2013-03-19 23:38:00,27.0,20.1,29.83,SW,235,1.8,25.3,75,0.00,,,0.13,WeatherDisplay:10.37,2013-03-20 03:38:00,
2013-03-19 23:43:00,27.0,20.1,29.83,SW,226,3.8,25.3,75,0.00,,,0.13,WeatherDisplay:10.37,2013-03-20 03:43:00,
2013-03-19 23:48:00,26.9,20.0,29.83,SW,231,3.9,25.3,75,0.00,,,0.13,WeatherDisplay:10.37,2013-03-20 03:48:00,
2013-03-19 23:53:00,26.9,20.3,29.83,West,265,2.7,8.1,76,0.00,RA,,0.13,WeatherDisplay:10.37,2013-03-20 03:53:00,
2013-03-19 23:58:00,26.9,20.3,29.83,West,260,3.0,8.1,76,0.00,RA,,0.13,WeatherDisplay:10.37,2013-03-20 03:58:00,